HORS 4 (RS82S)

Last updated on Fri Dec 19 2025 00:03:12 GMT+0000 (Coordinated Universal Time)

1 61754U 24199V 25352.64413080 .00024758 00000+0 53119-3 0 9998 2 61754 97.3210 221.6551 0006853 208.3477 151.7399 15.44690267109641
UTC large
Height (km)
Speed (km/s)
/
Latitude / Longitude
Inclination (degrees)
Orbital Period (minutes)
Azimuth
Elevation
Range (km)
Doppler Factor

Next 0 passes for location: London (51.5072 / 0.1276)

Sorry there are no passes over London.